Weather in Kulary

Russia / Chechen Republic     43°14′17″N   45°30′06″E
temp.,
°C
wind,
m/s
gust,
m/s
humid.,
%
clouds,
%
prec.,
mm/h
press.,
hPa
HPBL,
m
24 may, tue
tue2400:00+13wnw3896100 9.9 1007459
03:00+12w3795100 12.0 1007332
06:00+12w3695100 2.3 1009338
09:00+12w4892100 5.3 1010518
12:00+16wsw4572100 1.1 1010919
15:00+14n2381100 1.3 1011174
18:00+14s1182100 0.1 101221
21:00+12w2593100 0.6 1014139
25 may, wed
wed2500:00+12wnw2594100 0.4 1015192
03:00+11w4895100 1.7 1016403
06:00+11w41094100 2.9 1018561
09:00+11wsw4991100 5.8 1019426
12:00+16wsw346690 0.6 10201193
15:00+18nnw125777 1.1 10191431
18:00+17nw226616 0.1 102098
21:00+12wsw22815 0.1 102218
26 may, thu
thu2600:00+10wsw22885 0.0 102220
03:00+9ssw21875 0.0 102217
06:00+12sw117826 0.0 102277
09:00+17n116362 0.0 1022599
12:00+20ene324717 0.0 10211720
15:00+21e224535 0.0 10201825
18:00+19ese34625 0.0 1020240
21:00+14se11754 0.0 102017
27 may, fri
fri2700:00+12wsw118431 0.0 102016
03:00+10sw1182100 0.0 102013
06:00+13ssw117185 0.0 102070
09:00+20ne11515 0.0 1019463
12:00+23e22425 0.0 10181333
15:00+25e22390 0.0 10171711
18:00+22ese23591 0.0 1017114
21:00+16s11731 0.0 101914
28 may, sat
sat2800:00+14w11790 0.0 101813
03:00+13wsw11810 0.0 101812
06:00+15wsw11752 0.0 101874
09:00+21ene12570 0.0 1016616
12:00+25ene33470 0.0 10141334
15:00+27e22450 0.0 10121657
18:00+23ne45600 0.0 1013206
21:00+17s00750 0.0 101512